EW7239 Weather Reports


time (UTC)temp
C
wind
direction
speed
KPH
gust
KPH
rain 1hr
cm
rain 24hr
cm
rain mn
cm
humidity
%
barometer
mb
20260504081830 14 236 4.8 11.3 0.00 0.00 0.00 75 1015.8
20260504081100 14 235 6.4 12.9 0.00 0.00 0.00 75 1015.9
20260504080559 14 235 6.4 12.9 0.00 0.00 0.00 75 1016.0
20260504050535 15 219 9.7 16.1 0.00 0.00 0.00 70 1014.9
20260504045534 15 222 9.7 17.7 0.00 0.00 0.00 70 1015.0
20260504045033 15 223 9.7 16.1 0.00 0.00 0.00 69 1014.9
20260504044533 15 225 11.3 16.1 0.00 0.00 0.00 69 1014.9
20260504044033 15 218 9.7 16.1 0.00 0.00 0.00 69 1015.1
20260504043535 15 221 8.0 14.5 0.00 0.00 0.00 68 1014.9
20260504043034 15 223 9.7 19.3 0.00 0.00 0.00 68 1014.9
20260504042535 15 223 9.7 19.3 0.00 0.00 0.00 68 1014.8
20260504042034 15 227 9.7 16.1 0.00 0.00 0.00 67 1014.9
20260504041531 15 215 9.7 16.1 0.00 0.00 0.00 67 1014.6
20260504041032 15 228 8.0 19.3 0.00 0.00 0.00 66 1014.7
20260504040529 15 211 9.7 19.3 0.00 0.00 0.00 66 1014.7
20260504040031 15 220 9.7 17.7 0.00 0.00 0.00 66 1014.8
20260504035527 15 210 11.3 19.3 0.00 0.00 0.00 66 1014.7
20260504035029 15 212 11.3 19.3 0.00 0.00 0.00 66 1014.6
20260504034527 15 219 9.7 17.7 0.00 0.00 0.00 66 1014.6
20260504034028 16 219 9.7 19.3 0.00 0.00 0.00 66 1014.5
20260504033529 16 224 9.7 22.5 0.00 0.00 0.00 66 1014.4
20260504033029 16 225 11.3 24.1 0.00 0.00 0.00 66 1014.4
20260504032529 16 225 11.3 24.1 0.00 0.00 0.00 66 1014.3
20260504032258 16 225 11.3 20.9 0.00 0.00 0.00 66 1014.2
20260504031755 16 215 12.9 20.9 0.00 0.00 0.00 66 1014.1
20260504031023 16 212 12.9 19.3 0.00 0.00 0.00 66 1014.1
20260504030523 16 224 12.9 20.9 0.00 0.00 0.00 66 1014.1
20260504030020 16 227 12.9 24.1 0.00 0.00 0.00 66 1013.9
20260504025520 16 210 12.9 24.1 0.00 0.00 0.00 65 1013.8
20260504024520 16 205 14.5 27.4 0.00 0.00 0.00 65 1013.8
20260504024020 16 218 12.9 27.4 0.00 0.00 0.00 64 1013.8
20260504023514 16 211 11.3 20.9 0.00 0.00 0.00 63 1013.6
20260504023245 16 232 12.9 22.5 0.00 0.00 0.00 63 1013.5
20260504022745 16 220 14.5 22.5 0.00 0.00 0.00 62 1013.5
20260504022011 17 221 14.5 22.5 0.00 0.00 0.00 62 1013.2
20260504021511 17 213 12.9 22.5 0.00 0.00 0.00 62 1013.1
20260504021011 17 229 12.9 22.5 0.00 0.00 0.00 61 1013.1
20260504020743 17 219 12.9 22.5 0.00 0.00 0.00 61 1013.0
20260504020008 17 227 14.5 25.7 0.00 0.00 0.00 61 1012.9
20260504015508 17 231 12.9 25.7 0.00 0.00 0.00 60 1013.0
20260504015007 17 219 12.9 24.1 0.00 0.00 0.00 59 1012.9
20260504014509 18 215 12.9 24.1 0.00 0.00 0.00 59 1012.7
20260504014001 18 221 12.9 25.7 0.00 0.00 0.00 58 1012.7
20260504013501 18 223 12.9 25.7 0.00 0.00 0.00 58 1012.8
20260504012959 18 211 12.9 24.1 0.00 0.00 0.00 57 1012.6
20260504012501 18 215 11.3 20.9 0.00 0.00 0.00 57 1012.6
20260504012001 18 219 11.3 20.9 0.00 0.00 0.00 57 1012.6
20260504011501 18 227 12.9 22.5 0.00 0.00 0.00 57 1012.5
20260504011000 18 227 12.9 22.5 0.00 0.00 0.00 57 1012.5
20260504010500 18 218 12.9 22.5 0.00 0.00 0.00 57 1012.5
20260504005957 19 217 11.3 22.5 0.00 0.00 0.00 56 1012.3
20260504005456 19 227 11.3 22.5 0.00 0.00 0.00 56 1012.5
20260504004957 19 219 12.9 19.3 0.00 0.00 0.00 55 1012.3
20260504004453 19 222 12.9 19.3 0.00 0.00 0.00 55 1012.3
20260504003953 20 232 11.3 19.3 0.00 0.00 0.00 54 1012.2
20260504003452 20 214 12.9 27.4 0.00 0.00 0.00 54 1012.3
20260504002952 20 222 14.5 27.4 0.00 0.00 0.00 54 1012.3
20260504002448 20 223 12.9 20.9 0.00 0.00 0.00 54 1012.1
20260504001948 20 223 11.3 19.3 0.00 0.00 0.00 54 1012.1
20260504001448 20 233 11.3 22.5 0.00 0.00 0.00 55 1012.1
20260504000946 20 221 11.3 22.5 0.00 0.00 0.00 54 1012.0
20260504000446 20 223 11.3 19.3 0.00 0.00 0.00 54 1012.0
20260503235946 20 223 11.3 17.7 0.00 0.00 0.00 55 1012.1
20260503235445 20 215 11.3 22.5 0.00 0.00 0.00 54 1012.0
20260503234946 20 232 12.9 22.5 0.00 0.00 0.00 53 1012.0
20260503234447 21 220 9.7 16.1 0.00 0.00 0.00 53 1012.1
20260503234218 21 248 9.7 19.3 0.00 0.00 0.00 54 1012.2
20260503233445 20 233 9.7 22.5 0.00 0.00 0.00 57 1012.2
20260503232945 20 223 11.3 22.5 0.00 0.00 0.00 55 1012.2
20260503232446 20 225 11.3 20.9 0.00 0.00 0.00 55 1012.2
20260503231946 21 223 12.9 20.9 0.00 0.00 0.00 55 1012.5
20260503231446 21 223 11.3 22.5 0.00 0.00 0.00 54 1012.3
20260503230946 22 230 11.3 22.5 0.00 0.00 0.00 53 1012.3
20260503230446 21 265 11.3 24.1 0.00 0.00 0.00 57 1012.3
20260503230217 20 231 12.9 24.1 0.00 0.00 0.00 58 1012.6
20260503225710 20 234 12.9 20.9 0.00 0.00 0.00 59 1012.6
20260503224939 20 221 11.3 20.9 0.00 0.00 0.00 59 1012.7
20260503224441 20 217 11.3 20.9 0.00 0.00 0.00 60 1012.7
20260503223939 20 223 11.3 24.1 0.00 0.00 0.00 59 1012.8
20260503223440 20 248 12.9 24.1 0.00 0.00 0.00 59 1012.8
20260503222940 21 226 11.3 19.3 0.00 0.00 0.00 59 1012.9
20260503222440 21 223 9.7 17.7 0.00 0.00 0.00 60 1012.9
20260503221939 20 221 11.3 22.5 0.00 0.00 0.00 61 1012.9
20260503221439 20 219 11.3 22.5 0.00 0.00 0.00 60 1013.0
20260503220940 20 229 9.7 19.3 0.00 0.00 0.00 60 1013.0
20260503220438 20 223 11.3 22.5 0.00 0.00 0.00 61 1013.0
20260503215937 20 196 9.7 22.5 0.00 0.00 0.00 61 1013.1
20260503215438 20 226 9.7 16.1 0.00 0.00 0.00 60 1013.2
20260503214937 20 225 8.0 16.1 0.00 0.00 0.00 61 1013.3
20260503214438 20 237 9.7 19.3 0.00 0.00 0.00 63 1013.2
20260503213938 20 249 9.7 19.3 0.00 0.00 0.00 61 1013.3
20260503213438 21 227 8.0 17.7 0.00 0.00 0.00 60 1013.3
20260503212939 21 229 8.0 17.7 0.00 0.00 0.00 61 1013.4
20260503212437 20 237 6.4 16.1 0.00 0.00 0.00 61 1013.4
20260503211936 20 249 8.0 12.9 0.00 0.00 0.00 60 1013.4
20260503211436 21 252 8.0 14.5 0.00 0.00 0.00 60 1013.4
20260503210935 21 225 8.0 17.7 0.00 0.00 0.00 60 1013.4
20260503210436 21 214 4.8 17.7 0.00 0.00 0.00 61 1013.4
20260503205935 21 230 3.2 11.3 0.00 0.00 0.00 64 1013.5
20260503204933 20 227 6.4 14.5 0.00 0.00 0.00 62 1013.6
20260503203934 20 240 4.8 12.9 0.00 0.00 0.00 65 1013.6
20260503203702 20 237 4.8 11.3 0.00 0.00 0.00 67 1013.7
20260503202929 20 238 4.8 11.3 0.00 0.00 0.00 67 1013.8
20260503202430 19 256 4.8 12.9 0.00 0.00 0.00 70 1013.8
20260503201928 18 257 6.4 12.9 0.00 0.00 0.00 71 1013.9
20260503201426 18 207 6.4 12.9 0.00 0.00 0.00 72 1014.0
20260503200926 18 228 8.0 14.5 0.00 0.00 0.00 74 1014.1
20260503200421 17 225 8.0 14.5 0.00 0.00 0.00 74 1014.1
20260503195917 17 232 8.0 14.5 0.00 0.00 0.00 75 1014.2
20260503195417 17 244 6.4 12.9 0.00 0.00 0.00 78 1014.3
20260503194912 16 234 8.0 14.5 0.00 0.00 0.00 78 1014.3
20260503194413 16 231 9.7 14.5 0.00 0.00 0.00 79 1014.4
20260503193911 16 223 8.0 14.5 0.00 0.00 0.00 79 1014.5
20260503193412 16 237 6.4 14.5 0.00 0.00 0.00 80 1014.6
20260503193142 16 257 9.7 16.1 0.00 0.00 0.00 80 1014.6
20260503192409 16 222 11.3 16.1 0.00 0.00 0.00 80 1014.6
20260503191907 16 225 9.7 17.7 0.00 0.00 0.00 79 1014.7
20260503191639 16 210 8.0 17.7 0.00 0.00 0.00 79 1014.7
20260503190908 16 193 8.0 16.1 0.00 0.00 0.00 79 1014.8
20260503190408 16 223 8.0 14.5 0.00 0.00 0.00 79 1014.8
20260503190138 16 234 9.7 14.5 0.00 0.00 0.00 80 1014.8
20260503185407 16 226 8.0 14.5 0.00 0.00 0.00 80 1014.8
20260503184909 16 230 8.0 14.5 0.00 0.00 0.00 81 1014.8
20260503184638 16 238 6.4 17.7 0.00 0.00 0.00 82 1014.8
20260503183909 16 221 8.0 17.7 0.00 0.00 0.00 82 1014.9
20260503183407 16 219 8.0 16.1 0.00 0.00 0.00 83 1014.8
20260503182908 16 221 8.0 16.1 0.00 0.00 0.00 84 1014.9
20260503182404 16 221 8.0 16.1 0.00 0.00 0.00 84 1014.9
20260503181903 16 223 6.4 14.5 0.00 0.00 0.00 85 1014.9
20260503180859 15 223 9.7 16.1 0.00 0.00 0.00 85 1014.9
20260503180359 15 224 9.7 16.1 0.00 0.00 0.00 85 1014.9
20260503175900 15 223 9.7 16.1 0.00 0.00 0.00 85 1014.9
20260503175355 15 224 9.7 16.1 0.00 0.00 0.00 85 1014.8
20260503174851 15 224 9.7 16.1 0.00 0.00 0.00 85 1014.8
20260503174352 15 225 9.7 16.1 0.00 0.00 0.00 84 1014.7
20260503173852 15 211 8.0 14.5 0.00 0.00 0.00 84 1014.7
20260503173351 15 213 8.0 14.5 0.00 0.00 0.00 84 1014.7
20260503172851 15 215 8.0 14.5 0.00 0.00 0.00 83 1014.7
20260503172351 15 226 6.4 11.3 0.00 0.00 0.00 82 1014.6
20260503171853 15 232 6.4 9.7 0.00 0.00 0.00 81 1014.6
20260503171624 15 233 6.4 9.7 0.00 0.00 0.00 81 1014.5
20260503170852 15 234 6.4 9.7 0.00 0.00 0.00 80 1014.5
20260503170349 15 234 6.4 11.3 0.00 0.00 0.00 80 1014.5
20260503170120 15 235 4.8 11.3 0.00 0.00 0.00 80 1014.5
20260503150839 14 257 3.2 6.4 0.00 0.00 0.00 81 1014.1
20260503150341 14 257 4.8 6.4 0.00 0.00 0.00 81 1014.1
20260503131319 14 257 3.2 6.4 0.00 0.00 0.00 86 1013.4
20260503130816 14 257 3.2 6.4 0.00 0.00 0.00 86 1013.4
20260503130316 14 257 3.2 6.4 0.00 0.00 0.00 86 1013.4
20260503110758 14 257 4.8 11.3 0.00 0.00 0.00 86 1012.8
20260503110257 14 257 4.8 11.3 0.00 0.00 0.00 86 1012.7
20260503100250 14 257 6.4 11.3 0.00 0.00 0.00 85 1013.1